Iowa Falls, IA

5:26 AM CST on December 16, 2019 (GMT -0600)
Iowa Falls Municipal

Weather History for KIFA - October, 2019

Change the Weather History Date:

Friday, October 18, 2019

  Actual Average Record
Temperature  
Mean Temperature 58 °F -  
Max Temperature 72 °F 57 °F 88 °F (1953)
Min Temperature 43 °F 36 °F 20 °F (1952)
Degree Days  
Heating Degree Days 8    
Growing Degree Days 8 (Base 50)    
Moisture  
Dew Point 38 °F    
Average Humidity 56    
Maximum Humidity 78    
Minimum Humidity 24    
Precipitation  
Precipitation 0.00 in - - ()
Sea Level Pressure  
Sea Level Pressure 29.76 in    
Wind  
Wind Speed 13 mph ()    
Max Wind Speed 30 mph    
Max Gust Speed 38 mph    
Visibility 10.0 miles    
Events      
Averages and records for this station are not official NWS values.
T = Trace of Precipitation, MM = Missing Value Source: Averaged Metar Reports

Daily Weather History Graph

Daily Weather History Graph

Search for Another Location

Airport or City:

Astronomy

Oct. 18, 2019 Rise Set
Actual Time 7:29 AM CDT 6:26 PM CDT
Civil Twilight 7:00 AM CDT 6:54 PM CDT
Nautical Twilight 6:28 AM CDT 7:27 PM CDT
Astronomical Twilight 5:55 AM CDT 8:00 PM CDT
Moon 9:38 PM CDT (10/18) 12:07 PM CDT (10/18)
Length of Visible Light 11h 54m
Length of Day
10h 57m
Waning Gibbous, 78% of the Moon is Illuminated
Oct 18
Waning Gibbous
Oct 21
Last Quarter
Oct 27
New
Nov 4
First Quarter
Nov 12
Full

Hourly Weather History & Observations

Time (CDT) Temp. Windchill Dew Point Humidity Pressure Visibility Wind Dir Wind Speed Gust Speed Precip Events Conditions
12:15 AM 45.7 °F 41.5 °F 37.8 °F 74% 29.91 in 10.0 mi SE 8.1 mph - N/A   Clear
12:35 AM 46.0 °F 41.9 °F 38.1 °F 74% 29.91 in 10.0 mi SE 8.1 mph - N/A   Clear
12:55 AM 46.4 °F 41.9 °F 37.9 °F 72% 29.91 in 10.0 mi SE 9.2 mph - N/A   Clear
1:15 AM 46.0 °F 41.4 °F 37.8 °F 73% 29.91 in 10.0 mi SE 9.2 mph - N/A   Clear
1:35 AM 46.4 °F 41.5 °F 37.9 °F 72% 29.91 in 10.0 mi SE 10.4 mph - N/A   Clear
1:55 AM 46.4 °F 41.1 °F 37.9 °F 72% 29.90 in 10.0 mi SE 11.5 mph - N/A   Clear
2:15 AM 46.4 °F 42.4 °F 37.6 °F 71% 29.89 in 10.0 mi ESE 8.1 mph - N/A   Clear
2:35 AM 45.0 °F 41.2 °F 37.4 °F 75% 29.89 in 10.0 mi ESE 6.9 mph - N/A   Clear
2:55 AM 45.1 °F 40.3 °F 37.4 °F 74% 29.89 in 10.0 mi SE 9.2 mph - N/A   Clear
3:15 AM 45.0 °F 40.6 °F 37.4 °F 75% 29.88 in 10.0 mi SE 8.1 mph - N/A   Clear
3:35 AM 44.8 °F 39.9 °F 37.4 °F 75% 29.87 in 10.0 mi SE 9.2 mph - N/A   Clear
3:55 AM 45.1 °F 39.5 °F 37.4 °F 74% 29.86 in 10.0 mi SE 11.5 mph - N/A   Clear
4:15 AM 45.0 °F 40.1 °F 37.2 °F 74% 29.86 in 10.0 mi SE 9.2 mph - N/A   Clear
4:35 AM 44.8 °F 39.0 °F 37.4 °F 75% 29.86 in 10.0 mi SE 11.5 mph - N/A   Clear
4:55 AM 44.8 °F 38.7 °F 37.2 °F 75% 29.85 in 10.0 mi SE 12.7 mph - N/A   Clear
5:15 AM 44.8 °F 39.0 °F 37.0 °F 74% 29.84 in 10.0 mi SE 11.5 mph - N/A   Clear
5:35 AM 44.6 °F 39.2 °F 37.0 °F 75% 29.84 in 10.0 mi SE 10.4 mph - N/A   Clear
5:55 AM 44.6 °F 39.2 °F 37.2 °F 75% 29.84 in 10.0 mi SE 10.4 mph - N/A   Clear
6:15 AM 44.2 °F 38.8 °F 36.9 °F 75% 29.84 in 10.0 mi SE 10.4 mph - N/A   Clear
6:35 AM 43.7 °F 38.6 °F 36.9 °F 77% 29.84 in 10.0 mi SE 9.2 mph - N/A   Clear
6:55 AM 43.7 °F 38.6 °F 36.9 °F 77% 29.83 in 10.0 mi SE 9.2 mph - N/A   Clear
7:15 AM 43.3 °F 37.7 °F 36.9 °F 78% 29.82 in 10.0 mi SE 10.4 mph - N/A   Clear
7:35 AM 43.7 °F 37.7 °F 37.0 °F 77% 29.82 in 10.0 mi SE 11.5 mph - N/A   Clear
7:55 AM 43.7 °F 37.7 °F 37.4 °F 78% 29.82 in 10.0 mi SE 11.5 mph 17.3 mph N/A   Clear
8:15 AM 44.4 °F 38.2 °F 37.8 °F 77% 29.82 in 10.0 mi SE 12.7 mph - N/A   Clear
8:35 AM 45.5 °F 39.6 °F 38.3 °F 76% 29.82 in 10.0 mi SE 12.7 mph 18.4 mph N/A   Clear
8:55 AM 46.9 °F - 39.2 °F 74% 29.82 in 10.0 mi SE 13.8 mph 19.6 mph N/A   Clear
9:15 AM 48.2 °F - 39.7 °F 73% 29.82 in 10.0 mi SE 15.0 mph 18.4 mph N/A   Clear
9:35 AM 49.8 °F - 40.5 °F 70% 29.82 in 10.0 mi SSE 16.1 mph - N/A   Clear
9:55 AM 52.0 °F - 41.2 °F 67% 29.81 in 10.0 mi SSE 18.4 mph - N/A   Clear
10:15 AM 53.6 °F - 41.2 °F 63% 29.80 in 10.0 mi SSE 19.6 mph 25.3 mph N/A   Clear
10:35 AM 54.9 °F - 41.0 °F 60% 29.79 in 10.0 mi SSE 15.0 mph 25.3 mph N/A   Clear
10:55 AM 56.5 °F - 40.8 °F 56% 29.79 in 10.0 mi SE 17.3 mph 23.0 mph N/A   Clear
11:15 AM 59.9 °F - 40.6 °F 49% 29.78 in 10.0 mi SSE 20.7 mph 25.3 mph N/A   Clear
11:35 AM 62.4 °F - 39.7 °F 43% 29.77 in 10.0 mi SSE 19.6 mph 27.6 mph N/A   Clear
11:55 AM 63.9 °F - 39.4 °F 41% 29.76 in 10.0 mi SSE 19.6 mph 31.1 mph N/A   Clear
12:15 PM 65.5 °F - 38.8 °F 38% 29.76 in 10.0 mi SSE 21.9 mph 29.9 mph N/A   Clear
12:35 PM 66.4 °F - 38.1 °F 35% 29.74 in 10.0 mi SSE 25.3 mph 32.2 mph N/A   Clear
1:15 PM 68.2 °F - 38.3 °F 33% 29.72 in 10.0 mi SSE 24.2 mph 31.1 mph N/A   Clear
1:35 PM 68.9 °F - 36.3 °F 30% 29.71 in 10.0 mi SSE 29.9 mph 34.5 mph N/A   Clear
1:55 PM 69.8 °F - 36.9 °F 30% 29.69 in 10.0 mi SSE 26.5 mph 33.4 mph N/A   Clear
2:15 PM 69.8 °F - 36.1 °F 29% 29.67 in 10.0 mi SSE 24.2 mph 33.4 mph N/A   Clear
2:35 PM 69.1 °F - 36.1 °F 30% 29.66 in 10.0 mi SE 28.8 mph 36.8 mph N/A   Clear
2:55 PM 70.9 °F - 36.0 °F 28% 29.65 in 10.0 mi SSE 23.0 mph 33.4 mph N/A   Clear
3:15 PM 71.1 °F - 35.1 °F 27% 29.64 in 10.0 mi SE 26.5 mph 35.7 mph N/A   Clear
3:35 PM 72.0 °F - 33.6 °F 24% 29.65 in 10.0 mi SSE 28.8 mph 35.7 mph N/A   Clear
3:55 PM 71.6 °F - 34.2 °F 25% 29.64 in 10.0 mi SSE 24.2 mph 38.0 mph N/A   Clear
4:15 PM 71.4 °F - 33.1 °F 24% 29.63 in 10.0 mi SSE 27.6 mph 36.8 mph N/A   Clear
4:35 PM 71.1 °F - 33.3 °F 25% 29.62 in 10.0 mi SE 29.9 mph 35.7 mph N/A   Clear
4:55 PM 70.0 °F - 33.3 °F 26% 29.62 in 10.0 mi SSE 27.6 mph 36.8 mph N/A   Clear
5:15 PM 69.6 °F - 34.5 °F 27% 29.62 in 10.0 mi SSE 24.2 mph 32.2 mph N/A   Clear
5:35 PM 68.2 °F - 35.8 °F 30% 29.62 in 10.0 mi SE 24.2 mph 32.2 mph N/A   Clear
5:55 PM 67.3 °F - 36.0 °F 32% 29.62 in 10.0 mi SE 24.2 mph 32.2 mph N/A   Clear
6:15 PM 65.7 °F - 36.9 °F 35% 29.62 in 10.0 mi SE 20.7 mph 29.9 mph N/A   Clear
6:35 PM 64.4 °F - 37.8 °F 37% 29.63 in 10.0 mi SE 19.6 mph 28.8 mph N/A   Clear
6:55 PM 63.3 °F - 38.7 °F 40% 29.63 in 10.0 mi SE 19.6 mph 26.5 mph N/A   Clear
7:15 PM 62.4 °F - 39.4 °F 43% 29.65 in 10.0 mi SSE 16.1 mph 24.2 mph N/A   Clear
7:35 PM 61.5 °F - 39.9 °F 45% 29.68 in 10.0 mi SSE 11.5 mph - N/A   Clear
7:55 PM 61.0 °F - 40.5 °F 47% 29.68 in 10.0 mi SSE 15.0 mph - N/A   Clear
8:15 PM 60.3 °F - 41.0 °F 49% 29.69 in 10.0 mi SSE 15.0 mph 19.6 mph N/A   Clear
8:35 PM 59.5 °F - 41.0 °F 50% 29.70 in 10.0 mi SSE 13.8 mph - N/A   Clear
8:55 PM 58.8 °F - 41.0 °F 52% 29.70 in 10.0 mi SSE 12.7 mph - N/A   Clear
9:15 PM 57.9 °F - 41.0 °F 53% 29.70 in 10.0 mi SSE 11.5 mph - N/A   Clear
9:35 PM 56.5 °F - 41.0 °F 56% 29.71 in 10.0 mi SSE 10.4 mph - N/A   Clear
9:55 PM 55.9 °F - 41.0 °F 57% 29.71 in 10.0 mi SSE 11.5 mph - N/A   Clear
10:15 PM 54.7 °F - 41.0 °F 60% 29.71 in 10.0 mi SSE 10.4 mph - N/A   Clear
10:35 PM 53.6 °F - 41.2 °F 63% 29.71 in 10.0 mi SSE 10.4 mph - N/A   Clear
10:55 PM 53.6 °F - 41.2 °F 63% 29.71 in 10.0 mi SSE 9.2 mph - N/A   Clear
11:15 PM 53.2 °F - 41.4 °F 64% 29.71 in 10.0 mi SSE 11.5 mph - N/A   Clear
11:35 PM 53.2 °F - 41.4 °F 64% 29.71 in 10.0 mi SSE 11.5 mph - N/A   Clear
11:55 PM 53.2 °F - 41.2 °F 64% 29.71 in 10.0 mi SSE 12.7 mph - N/A   Clear